Dewpoint
50 51 54 57 65 64 63 63 61 62 62 60 62 63 63 62 62 61 61 62 61 59 55 58 57 59 59 55 57 56 56 56 55 55 54 53 54 52 51 51 52 51 51
48 49 52 55 59 65 63 63 60 57 58 60 59 62 63 62 62 62 60 60 60 60 59 58 55 56 58 55 58 56 54 55 55 54 54 54 53 51 50 50 51 51 51
47 48 51 54 57 64 65 63 63 57 59 59 58 59 61 62 62 61 60 59 58 58 58 58 58 55 56 57 58 56 54 56 54 55 53 54 52 52 51 50 52 52 51
46 47 49 51 54 56 65 64 64 62 60 60 59 58 59 60 61 61 60 58 57 54 57 58 60 57 58 59 55 53 55 56 55 55 54 53 53 53 53 53 52 51 52
44 46 47 49 52 54 62 64 64 63 61 60 59 58 58 58 61 60 59 58 58 55 54 58 59 57 56 58 56 54 56 55 54 56 54 53 54 53 53 52 52 52 52
43 45 46 47 50 52 57 64 63 63 62 60 58 58 58 58 60 60 59 57 57 56 54 55 56 55 56 58 57 55 56 54 55 54 55 54 53 53 52 51 51 50 52
42 43 44 45 47 49 53 56 63 62 61 61 57 56 57 58 59 59 59 57 57 56 56 54 51 52 56 57 56 55 56 56 54 55 55 53 54 54 53 52 51 50 52
40 42 43 44 46 48 51 54 59 62 62 60 57 55 53 54 56 57 58 57 57 55 55 55 54 52 53 55 56 56 56 57 56 55 55 54 54 54 53 53 50 51 51
39 40 42 43 44 47 48 52 54 60 59 60 59 55 52 52 54 55 56 56 57 56 54 55 56 54 53 51 55 55 55 56 58 56 55 56 55 54 54 53 52 50 51
38 40 41 43 44 46 47 50 53 54 60 57 59 59 58 56 53 52 54 55 56 55 55 54 55 54 53 53 53 52 52 53 56 58 58 57 56 54 53 53 53 53 51
37 39 41 43 44 45 46 49 51 54 59 59 58 59 58 57 58 54 52 53 54 54 54 55 54 55 54 53 53 53 53 52 52 53 57 58 57 56 54 54 54 54 53
36 38 41 43 45 45 45 46 49 54 55 61 60 59 58 57 56 56 54 53 53 53 54 54 55 54 54 53 53 53 53 52 52 52 53 55 58 57 56 56 55 55 54
36 38 41 42 43 44 43 44 48 51 53 56 60 59 59 59 58 57 56 55 54 54 54 54 54 54 54 54 53 53 53 52 52 52 52 52 53 55 57 56 55 55 54
37 39 41 40 40 42 42 43 46 48 48 52 59 60 60 59 59 58 57 55 54 55 54 54 55 55 54 54 54 53 53 52 51 51 51 52 52 53 54 54 55 56 55
37 40 40 39 38 39 40 41 43 45 46 50 54 61 60 60 60 59 59 58 55 53 54 56 54 55 55 55 54 54 54 53 52 51 51 51 51 52 52 53 54 54 54
40 40 38 37 37 38 39 40 41 44 45 47 51 55 60 60 60 60 60 59 59 57 55 57 57 57 56 55 55 54 55 54 52 51 50 50 51 51 51 52 53 54 54
39 36 36 36 35 36 38 38 40 42 44 46 48 50 54 57 60 60 60 60 59 59 57 57 59 59 56 55 55 55 55 55 55 52 50 50 50 50 50 51 51 52 53
35 33 34 34 35 35 37 38 39 42 43 45 48 49 50 53 54 60 60 60 59 59 58 57 58 59 59 58 58 56 55 54 55 54 52 50 49 49 49 49 50 50 51
31 32 33 33 34 35 36 38 40 42 44 44 45 44 44 45 45 47 52 60 59 59 59 58 57 59 59 60 60 60 59 58 56 55 52 51 50 49 48 48 49 49 50
30 30 32 32 33 34 35 37 40 40 40 41 42 42 40 40 40 41 46 51 58 59 59 58 58 58 58 59 59 58 58 60 59 55 53 53 51 49 48 48 48 48 48
30 29 30 31 33 32 34 36 38 39 38 38 39 39 38 37 38 38 41 45 48 54 58 58 57 58 58 58 57 58 58 59 58 58 57 55 53 51 51 47 48 47 47
30 28 29 30 31 31 33 35 36 36 36 35 36 36 36 35 36 39 41 43 43 47 52 56 57 56 57 57 58 58 57 57 55 60 57 56 54 54 53 52 51 48 47
28 27 28 29 30 31 32 33 34 35 34 33 33 33 33 33 34 37 41 44 42 42 42 47 50 48 51 56 57 57 57 57 56 58 59 56 55 56 57 55 53 51 49
27 27 27 27 29 29 31 32 32 33 32 32 31 31 32 31 31 34 39 40 40 40 41 42 42 40 40 40 48 55 57 57 58 58 59 55 56 56 58 58 55 52 50
25 25 26 26 27 28 30 30 30 30 30 30 29 29 29 30 28 31 35 37 36 36 39 37 37 37 37 37 40 51 47 53 54 55 55 56 54 56 57 57 57 54 52
22 22 23 25 25 26 28 28 28 27 28 27 27 27 26 26 26 27 30 33 33 33 35 34 34 34 35 35 36 39 41 43 47 52 41 46 55 55 54 57 57 58 56
Wind_Speed
16 17 15 13 7 10 14 14 14 16 17 15 8 11 13 11 11 9 12 15 16 16 15 17 15 16 19 18 15 17 18 16 17 16 15 15 13 12 12 13 12 11 10
15 16 15 11 13 10 11 16 16 16 15 12 12 12 12 12 12 11 11 15 17 16 16 15 16 16 15 17 18 17 17 16 16 16 15 14 12 12 11 10 10 10 9
15 16 15 13 11 9 13 14 12 15 10 12 13 11 12 12 12 14 12 13 15 15 17 16 15 15 14 17 20 16 16 17 17 16 15 13 12 12 11 10 9 9 9
15 15 14 13 13 13 14 19 16 17 17 16 16 14 13 12 13 15 13 13 14 13 16 14 16 17 14 17 17 15 16 17 17 17 15 13 12 12 11 10 9 8 8
18 15 14 14 16 14 12 14 16 21 19 17 18 15 13 13 13 14 15 15 14 13 13 16 18 17 16 15 16 16 18 15 15 17 17 15 14 12 11 10 10 9 8
18 17 17 16 15 14 13 9 11 18 21 19 14 12 12 10 12 14 15 14 14 14 13 15 15 14 18 18 15 15 17 17 15 14 16 15 14 13 11 10 9 9 9
17 15 15 17 15 13 13 11 7 19 16 15 15 11 4 8 10 11 12 13 13 15 15 15 14 13 15 16 18 18 17 18 18 17 16 15 13 14 12 11 11 10 9
14 13 16 16 15 15 13 11 5 9 8 22 16 15 8 4 7 9 11 13 14 13 15 16 15 15 15 15 16 18 17 18 19 18 17 16 16 14 14 13 13 12 11
16 15 14 16 16 13 12 11 8 7 8 18 20 12 10 8 12 9 11 13 14 14 14 15 16 16 16 15 15 18 18 18 19 20 19 19 19 16 15 14 14 14 13
15 17 15 16 14 14 13 12 9 8 10 13 19 10 4 10 12 7 10 14 14 16 16 15 17 18 17 17 17 16 17 17 17 17 20 21 20 18 17 17 17 17 15
16 13 17 15 15 13 15 15 11 5 4 13 15 11 6 5 8 6 11 13 15 16 16 18 16 17 19 18 17 18 21 21 20 18 16 19 21 22 21 20 20 18 17
15 15 17 15 14 14 16 16 15 7 8 10 12 14 12 8 10 9 5 13 14 13 16 16 17 17 17 18 19 17 21 24 23 23 21 18 19 21 22 21 20 20 19
15 17 17 15 13 13 14 15 14 10 9 8 18 14 12 14 9 7 7 6 6 4 9 17 17 17 17 17 18 22 22 25 26 26 25 24 22 19 23 22 22 22 22
15 17 15 14 14 11 13 14 11 12 12 11 16 11 11 11 11 11 7 10 5 5 7 7 14 18 18 18 19 22 21 26 28 29 28 27 26 25 23 21 22 23 22
13 14 13 12 13 14 13 12 13 15 11 11 10 9 11 12 12 11 12 12 8 9 14 8 9 15 17 16 19 20 20 22 29 30 31 30 29 28 28 27 24 25 24
15 13 14 13 14 13 13 13 13 13 13 13 12 6 9 8 11 9 12 11 12 10 7 12 12 6 13 13 16 18 19 20 22 28 31 31 32 31 30 29 30 29 27
12 12 14 15 16 16 16 15 12 11 9 14 12 8 7 4 13 12 11 12 12 12 12 7 7 10 9 10 9 15 13 16 15 23 28 30 31 31 32 32 32 30 30
11 13 14 14 16 17 17 15 13 13 13 13 13 10 10 9 8 9 11 10 12 13 9 10 8 9 11 12 11 11 12 13 15 16 22 27 29 30 32 32 33 33 32
13 14 15 15 15 17 18 16 13 14 12 11 12 17 14 13 12 11 7 9 10 9 12 8 9 9 11 8 10 11 12 14 13 14 18 23 25 29 30 31 32 33 32
12 13 14 15 15 16 18 16 14 14 13 14 15 14 16 15 14 13 8 6 3 11 12 11 10 8 9 7 9 10 10 11 12 11 16 17 18 23 27 27 30 31 30
12 13 13 14 15 17 18 17 13 13 13 14 15 15 14 17 15 12 10 7 6 5 9 11 9 7 7 6 8 6 9 11 8 10 10 11 13 12 13 20 22 25 27
12 13 13 13 14 15 23 21 15 13 15 15 13 13 12 17 20 17 14 10 9 4 3 4 7 7 9 10 10 11 10 7 5 6 7 9 9 11 11 12 16 23 25
11 12 13 13 13 17 22 19 16 13 13 15 16 15 15 16 19 14 11 10 17 18 14 4 2 7 5 3 6 9 10 8 7 4 5 7 6 13 10 12 18 21 24
9 9 11 12 12 15 21 19 12 11 12 15 18 17 15 16 19 14 8 9 13 15 17 15 14 14 13 14 7 4 5 8 7 7 7 9 5 10 8 11 17 22 24
6 7 8 10 12 14 21 18 10 9 10 12 14 19 16 16 22 19 9 11 12 12 10 16 17 16 17 25 24 2 5 3 6 6 7 9 10 10 8 10 12 20 21
5 5 6 8 10 11 18 19 12 8 9 8 10 12 22 20 20 20 14 12 11 12 10 11 14 16 18 19 23 18 12 4 3 3 14 9 7 5 4 4 8 7 7
Wind_Direction
348 340 334 329 237 217 181 168 157 163 171 184 187 173 175 175 170 164 162 161 157 162 164 169 166 164 158 151 151 151 140 151 150 149 151 143 146 151 142 131 127 127 117
350 341 326 322 330 223 213 171 168 173 190 177 177 185 184 182 176 174 166 165 160 161 167 173 180 175 171 158 160 160 155 161 157 158 153 149 161 148 153 145 138 133 129
352 343 326 328 316 278 226 175 177 174 191 193 189 184 193 191 182 177 174 167 165 168 172 180 193 175 177 171 157 159 167 170 165 164 160 165 156 166 155 150 148 145 138
357 351 337 332 323 316 213 182 180 185 192 189 191 190 193 192 186 181 179 174 173 171 180 190 178 165 178 173 167 177 180 175 172 170 164 162 177 171 167 162 163 157 148
349 359 342 333 334 327 275 191 190 186 183 185 185 184 190 189 183 182 182 183 178 178 179 178 174 173 180 188 180 183 183 179 184 178 173 179 181 181 181 178 174 170 163
354 356 345 341 343 331 328 219 202 184 181 177 165 164 182 185 182 188 187 184 183 184 187 185 186 190 186 184 187 193 193 185 191 187 185 180 187 192 187 191 192 187 184
358 352 347 339 346 335 313 325 193 179 184 164 147 125 139 181 186 190 193 188 188 190 193 194 194 195 195 200 187 195 204 199 195 194 196 185 197 196 194 196 201 203 204
346 351 355 339 340 330 339 342 327 190 192 167 181 154 148 170 200 192 196 194 192 193 198 204 204 201 198 198 203 199 211 208 198 200 200 191 197 212 199 197 212 213 217
345 352 353 340 337 338 337 335 339 255 165 182 181 170 157 178 164 188 198 201 198 201 205 206 210 207 209 211 197 205 215 217 208 204 202 198 200 208 207 205 217 222 224
352 345 348 347 331 338 334 331 327 337 170 142 170 138 117 125 182 163 199 204 209 209 208 210 210 213 211 215 214 215 208 216 215 223 211 201 203 202 213 214 218 224 228
351 343 348 344 333 340 333 326 318 346 249 155 178 152 143 134 175 161 180 193 211 214 214 215 213 214 214 216 217 218 211 213 222 231 227 219 207 207 209 215 217 224 224
344 352 352 345 333 354 347 329 327 311 18 190 183 176 177 167 189 183 160 177 202 208 216 216 214 216 218 216 220 219 214 217 219 226 233 234 230 218 211 208 219 225 229
346 346 355 344 356 348 338 342 331 343 27 326 185 189 191 202 166 167 154 137 172 176 210 221 221 217 219 221 222 215 218 220 222 225 230 234 236 235 217 212 215 224 229
341 347 340 358 353 339 350 339 329 6 11 328 198 200 192 190 178 171 153 140 150 178 204 217 219 221 221 220 224 213 224 221 225 226 228 232 234 235 235 230 225 224 227
334 343 354 355 355 359 349 353 352 13 352 352 323 195 199 191 193 167 166 168 173 193 220 221 214 212 220 222 222 220 224 226 224 226 227 229 231 233 234 234 234 230 226
339 348 353 360 357 360 358 3 360 4 359 357 339 7 201 169 182 176 175 174 191 199 219 211 219 199 207 214 221 222 230 233 227 228 229 229 229 230 232 233 233 233 232
5 4 360 357 1 3 360 14 360 16 350 12 342 15 28 7 181 189 199 202 205 198 225 208 210 208 204 215 217 219 227 232 240 232 233 232 231 231 230 231 233 233 233
15 11 8 7 5 6 1 13 3 11 14 8 353 28 27 10 21 209 197 203 218 207 205 228 201 209 210 220 225 220 222 227 233 239 231 234 234 234 233 233 233 233 232
19 10 13 12 11 9 3 5 2 22 30 30 28 40 30 23 22 0 1 221 208 200 202 220 226 212 228 209 217 225 238 244 239 238 232 236 238 234 235 235 235 236 234
22 20 15 13 14 16 12 3 7 28 26 38 32 49 35 24 17 352 338 355 260 205 202 222 221 228 221 218 227 259 249 244 251 230 232 231 232 236 235 235 237 238 237
24 23 20 19 18 19 10 9 19 29 30 39 34 38 36 21 9 349 342 342 338 297 213 219 216 201 200 201 230 240 245 255 251 232 236 233 231 231 239 237 241 238 236
17 20 21 21 26 22 5 10 19 29 36 38 31 29 28 21 2 355 326 49 48 342 302 241 204 218 224 231 225 239 245 254 268 211 225 244 208 242 236 228 232 233 232
12 19 22 20 25 23 11 14 22 40 40 38 34 27 25 11 15 345 351 52 52 38 36 342 24 29 335 329 278 255 253 253 252 201 219 273 201 244 232 232 232 235 235
17 18 19 20 23 21 14 18 22 43 46 44 37 30 29 17 11 2 11 59 53 38 41 50 54 55 36 360 304 286 277 261 251 233 209 275 205 248 245 250 235 234 234
27 26 27 26 26 24 16 22 31 48 50 48 45 38 28 27 17 15 35 66 58 37 53 59 62 43 40 31 19 25 44 269 236 224 16 265 269 272 259 248 240 235 235
43 36 40 36 35 33 25 23 26 58 59 53 51 41 36 33 30 33 45 46 64 34 28 41 39 40 28 34 31 37 30 22 356 241 9 341 272 266 279 262 262 254 248